User: anonymous   Login
Location: Unspecified
(0.0000°N, 0.0000°E)
Time: 04:17:00
(UTC+00:00)
Language:

ONEWEB-0142 - Orbit

View from above orbital plane
View from above orbital plane
View from above satellite
View from above satellite

Ground track
Ground track

The orbit is defined by the following mean orbital elements,

1 47288U          26145.28498000 +.00000000 +00000-0 -33845-4 0 00009
2 47288  87.8953 355.2245 0001707  99.8175 260.3146 13.12440475    04
Epoch (UTC): 25 May 2026 06:50:22
Eccentricity: 0.0001707
inclination: 87.8953°
perigee height: 1212 km
apogee height: 1215 km
right ascension of ascending node: 355.2245°
argument of perigee: 99.8175°
revolutions per day: 13.12440475
mean anomaly at epoch: 260.3146°

The dashed part of the orbit path shows where the satellite is in the earth's shadow,  

DLR